Simultaneous Nadir Overpasses (SNOs) Predictions

Prediction of SNOs between NOAA-21 and METOP-B Satellite Orbit:

Table of predicted SNOs for the next 14.0 days since TLE Epoch: 11/20/2023
Index Date (NOAA-21) Time (NOAA-21) Lat,Lon (NOAA-21) SZA (NOAA-21 ) Date (METOP-B) Time (METOP-B) Lat,Lon (METOP-B) SZA (METOP-B ) Distance(km) Time Diff (sec)
1 12/03/2023 09:17:26 73.63, 30.15 95.76 12/03/2023 09:18:32 73.58, 33.09 95.62 92.54 66
2 12/03/2023 10:08:08 -73.51,-162.27 84.36 12/03/2023 10:09:16 -73.47,-159.82 84.48 77.36 68
3 12/03/2023 10:58:50 73.33, 5.45 95.45 12/03/2023 11:00:00 73.25, 7.02 95.32 50.80 70
4 12/03/2023 11:49:32 -73.21, 173.03 84.67 12/03/2023 11:50:44 -73.15, 174.12 84.78 35.79 72
5 12/03/2023 12:40:14 73.03, -19.27 95.14 12/03/2023 12:41:27 72.97, -18.92 95.07 12.86 73
6 12/03/2023 13:30:56 -72.91, 148.30 84.98 12/03/2023 13:32:10 -72.92, 148.29 84.98 1.01 74
7 12/03/2023 14:21:41 72.88, -44.32 95.00 12/03/2023 14:22:50 72.90, -44.42 95.01 3.70 69
8 12/03/2023 15:12:26 -72.91, 122.92 84.97 12/03/2023 15:13:32 -72.90, 122.90 84.99 2.17 66
9 12/03/2023 16:03:12 72.93, -69.81 95.06 12/03/2023 16:04:11 72.92, -69.71 95.04 3.55 59
10 12/03/2023 16:53:56 -72.92, 97.54 84.96 12/03/2023 16:54:53 -72.92, 97.62 84.96 2.49 57
11 12/03/2023 17:44:41 72.89, -95.08 95.02 12/03/2023 17:45:33 72.90, -95.10 95.03 1.32 52
12 12/03/2023 18:35:25 -72.87, 72.27 85.00 12/03/2023 18:36:15 -72.90, 72.22 84.97 3.31 50
13 12/03/2023 19:26:11 72.89,-120.46 95.03 12/03/2023 19:26:55 72.87,-120.50 95.01 2.27 44
14 12/03/2023 20:16:55 -72.87, 46.89 84.98 12/03/2023 20:17:37 -72.87, 46.83 84.99 1.91 42
15 12/03/2023 21:07:41 72.89,-145.84 95.05 12/03/2023 21:08:16 72.90,-145.78 95.05 2.01 35
16 12/03/2023 21:58:25 -72.87, 21.51 84.97 12/03/2023 21:58:58 -72.90, 21.54 84.95 2.65 33
17 12/03/2023 22:49:10 72.89,-171.22 95.06 12/03/2023 22:49:37 72.87,-171.18 95.03 2.98 27
18 12/03/2023 23:39:54 -72.88, -3.87 84.96 12/03/2023 23:40:19 -72.87, -3.85 84.97 0.99 25
19 12/04/2023 00:30:39 72.84, 163.50 95.02 12/04/2023 00:30:59 72.84, 163.43 95.02 2.43 20
20 12/04/2023 01:21:23 -72.83, -29.15 85.00 12/04/2023 01:21:41 -72.84, -29.24 84.98 3.68 18
21 12/04/2023 02:12:09 72.85, 138.12 95.03 12/04/2023 02:12:20 72.87, 138.14 95.05 2.54 11



Historial Predications of SNOs between NOAA-21 and METOP-B
